Rickenbacker, OH

10:25 PM EDT on October 19, 2017 (GMT -0400)
Rickenbacker International

Weather History for KLCK - March, 2013

Change the Weather History Date:

Monday, March 11, 2013

  Actual Average Record
Temperature  
Mean Temperature 52 °F -  
Max Temperature 61 °F 46 °F 72 °F (2009)
Min Temperature 43 °F 28 °F 14 °F (1999)
Degree Days  
Heating Degree Days 13    
Growing Degree Days 2 (Base 50)    
Moisture  
Dew Point 41 °F    
Average Humidity 64    
Maximum Humidity 86    
Minimum Humidity 34    
Precipitation  
Precipitation 0.00 in - - ()
Sea Level Pressure  
Sea Level Pressure 29.77 in    
Wind  
Wind Speed 10 mph (South)    
Max Wind Speed 24 mph    
Max Gust Speed 33 mph    
Visibility 10 miles    
Events Rain    
Averages and records for this station are not official NWS values.
T = Trace of Precipitation, MM = Missing Value Source: NWS Daily Summary

Daily Weather History Graph

Daily Weather History Graph

Search for Another Location

Airport or City:

Trip Planner

Search our weather history database for the weather conditions in past years. The results will help you decide how hot, cold, wet, or windy it might be!

Date:

Astronomy

Mar. 11, 2013 Rise Set
Actual Time 7:49 AM EDT 7:34 PM EDT
Civil Twilight 7:22 AM EDT 8:01 PM EDT
Nautical Twilight 6:50 AM EDT 8:32 PM EDT
Astronomical Twilight 6:19 AM EDT 9:04 PM EDT
Moon 7:22 AM EDT (3/11) 7:45 PM EDT (3/11)
Length of Visible Light 12h 39m
Length of Day
11h 45m
Waning Crescent, 0% of the Moon is Illuminated
Mar 11
Waning Crescent
Mar 11
New
Mar 19
First Quarter
Mar 27
Full
Apr 3
Last Quarter

Hourly Weather History & Observations

Time (EDT) Temp. Windchill Dew Point Humidity Pressure Visibility Wind Dir Wind Speed Gust Speed Precip Events Conditions
12:15 AM 61.0 °F - 33.4 °F 36% 29.87 in 10.0 mi SSE 9.2 mph - N/A   Clear
12:35 AM 61.7 °F - 33.1 °F 34% 29.87 in 10.0 mi SSE 11.5 mph - N/A   Clear
12:55 AM 61.9 °F - 33.4 °F 34% 29.86 in 10.0 mi SSE 10.4 mph - N/A   Clear
1:15 AM 61.5 °F - 34.0 °F 36% 29.86 in 10.0 mi South 8.1 mph - N/A   Mostly Cloudy
1:35 AM 61.2 °F - 34.5 °F 37% 29.86 in 10.0 mi SSE 10.4 mph - N/A   Overcast
1:55 AM 61.7 °F - 33.8 °F 35% 29.86 in 10.0 mi SSE 11.5 mph - N/A   Overcast
2:15 AM 61.3 °F - 33.8 °F 36% 29.86 in 10.0 mi SSE 12.7 mph - N/A   Mostly Cloudy
2:35 AM 61.5 °F - 33.1 °F 34% 29.83 in 10.0 mi SE 9.2 mph - N/A   Mostly Cloudy
2:55 AM 60.3 °F - 35.6 °F 40% 29.85 in 10.0 mi SSE 10.4 mph - N/A   Mostly Cloudy
3:15 AM 60.1 °F - 34.5 °F 38% 29.84 in 10.0 mi SSE 8.1 mph - N/A   Mostly Cloudy
3:35 AM 59.7 °F - 34.2 °F 38% 29.84 in 10.0 mi SSE 8.1 mph - N/A   Mostly Cloudy
3:55 AM 59.4 °F - 34.0 °F 39% 29.85 in 10.0 mi South 8.1 mph - N/A   Mostly Cloudy
4:15 AM 58.8 °F - 34.3 °F 40% 29.85 in 10.0 mi SSW 8.1 mph - N/A   Overcast
4:35 AM 57.0 °F - 37.6 °F 48% 29.86 in 10.0 mi SW 4.6 mph - N/A Rain Light Rain
4:55 AM 55.6 °F - 40.6 °F 57% 29.84 in 10.0 mi SW 4.6 mph - N/A Rain Light Rain
5:15 AM 55.2 °F - 41.2 °F 59% 29.84 in 10.0 mi Calm Calm - N/A Rain Light Rain
5:35 AM 54.1 °F - 42.4 °F 65% 29.84 in 10.0 mi SSW 3.5 mph - N/A   Light Drizzle
5:55 AM 53.4 °F - 42.8 °F 67% 29.84 in 10.0 mi ESE 4.6 mph - N/A Rain Light Rain
6:15 AM 51.6 °F - 43.9 °F 75% 29.85 in 10.0 mi East 3.5 mph - N/A Rain Light Rain
6:35 AM 51.6 °F - 44.1 °F 75% 29.84 in 10.0 mi East 3.5 mph - N/A Rain Light Rain
6:55 AM 50.9 °F - 43.9 °F 77% 29.83 in 10.0 mi East 5.8 mph - N/A   Overcast
7:15 AM 51.8 °F - 42.8 °F 71% 29.83 in 10.0 mi East 4.6 mph - N/A   Overcast
7:35 AM 52.9 °F - 41.4 °F 65% 29.83 in 10.0 mi ESE 3.5 mph - N/A   Overcast
7:55 AM 53.2 °F - 40.5 °F 62% 29.82 in 10.0 mi ESE 5.8 mph - N/A   Overcast
8:15 AM 54.1 °F - 38.3 °F 55% 29.81 in 10.0 mi SE 8.1 mph - N/A   Overcast
8:35 AM 55.0 °F - 36.5 °F 50% 29.81 in 10.0 mi SE 5.8 mph - N/A   Mostly Cloudy
8:55 AM 54.7 °F - 36.9 °F 51% 29.83 in 10.0 mi SSE 8.1 mph - N/A Rain Light Rain
9:15 AM 54.7 °F - 37.8 °F 53% 29.83 in 10.0 mi South 9.2 mph - N/A Rain Light Rain
9:35 AM 53.6 °F - 39.7 °F 59% 29.83 in 10.0 mi SSE 8.1 mph - N/A Rain Light Rain
9:55 AM 52.5 °F - 41.4 °F 66% 29.83 in 7.0 mi SSE 6.9 mph - N/A Rain Light Rain
10:15 AM 52.0 °F - 42.3 °F 69% 29.83 in 7.0 mi South 6.9 mph - N/A Rain Light Rain
10:35 AM 51.8 °F - 43.2 °F 72% 29.81 in 10.0 mi SSE 3.5 mph - N/A Rain Light Rain
10:55 AM 51.6 °F - 43.7 °F 74% 29.80 in 10.0 mi SE 6.9 mph - N/A Rain Light Rain
11:15 AM 51.6 °F - 43.5 °F 74% 29.78 in 10.0 mi SE 5.8 mph - N/A Rain Light Rain
11:35 AM 51.8 °F - 43.7 °F 74% 29.76 in 10.0 mi SE 6.9 mph - N/A Rain Light Rain
11:55 AM 53.1 °F - 43.9 °F 71% 29.74 in 10.0 mi SE 11.5 mph - N/A Rain Light Rain
12:15 PM 54.1 °F - 43.9 °F 68% 29.73 in 10.0 mi SE 11.5 mph - N/A   Overcast
12:35 PM 54.9 °F - 43.9 °F 66% 29.73 in 10.0 mi SSE 11.5 mph 19.6 mph N/A Rain Light Rain
12:55 PM 55.0 °F - 43.9 °F 66% 29.71 in 10.0 mi SSE 19.6 mph 32.2 mph N/A   Light Drizzle
1:15 PM 55.4 °F - 45.0 °F 68% 29.70 in 10.0 mi SSE 21.9 mph 28.8 mph N/A   Overcast
1:35 PM 56.7 °F - 45.0 °F 65% 29.68 in 10.0 mi SSE 16.1 mph 26.5 mph N/A   Mostly Cloudy
1:55 PM 57.4 °F - 45.1 °F 64% 29.68 in 10.0 mi SSE 21.9 mph 27.6 mph N/A   Mostly Cloudy
2:15 PM 57.4 °F - 45.9 °F 65% 29.67 in 10.0 mi South 19.6 mph 24.2 mph N/A Rain Light Rain
2:35 PM 57.2 °F - 46.6 °F 68% 29.66 in 10.0 mi South 17.3 mph 25.3 mph N/A Rain Light Rain
2:55 PM 57.6 °F - 47.1 °F 68% 29.65 in 10.0 mi South 19.6 mph 25.3 mph N/A Rain Light Rain
3:15 PM 57.6 °F - 47.5 °F 69% 29.63 in 10.0 mi SSE 16.1 mph 25.3 mph N/A Rain Light Rain
3:35 PM 57.6 °F - 47.8 °F 70% 29.61 in 10.0 mi South 19.6 mph 25.3 mph N/A Rain Light Rain
3:55 PM 57.6 °F - 48.2 °F 71% 29.62 in 10.0 mi South 18.4 mph 27.6 mph N/A Rain Light Rain
4:15 PM 56.8 °F - 48.9 °F 75% 29.60 in 10.0 mi SSE 20.7 mph 32.2 mph N/A Rain Light Rain
4:35 PM 56.5 °F - 49.5 °F 77% 29.59 in 10.0 mi South 21.9 mph 33.4 mph N/A Rain Rain
4:55 PM 56.8 °F - 50.0 °F 78% 29.60 in 10.0 mi South 24.2 mph 29.9 mph N/A   Overcast
5:15 PM 55.2 °F - 48.7 °F 79% 29.64 in 2.5 mi SW 15.0 mph 27.6 mph N/A Rain Heavy Rain
5:35 PM 50.5 °F - 46.4 °F 86% 29.64 in 4.0 mi West 10.4 mph - N/A Rain Rain
5:55 PM 49.5 °F - 45.1 °F 85% 29.65 in 7.0 mi West 13.8 mph 19.6 mph N/A Rain Light Rain
6:15 PM 49.1 °F - 44.4 °F 84% 29.66 in 10.0 mi West 13.8 mph - N/A   Overcast
6:35 PM 48.9 °F - 44.1 °F 83% 29.67 in 10.0 mi WSW 15.0 mph 21.9 mph N/A   Overcast
6:55 PM 48.9 °F - 43.2 °F 80% 29.68 in 10.0 mi WSW 20.7 mph 28.8 mph N/A   Overcast
7:15 PM 48.9 °F - 42.1 °F 77% 29.69 in 10.0 mi SW 15.0 mph 26.5 mph N/A Rain Light Rain
7:35 PM 48.6 °F - 41.0 °F 75% 29.70 in 10.0 mi SW 15.0 mph 23.0 mph N/A   Overcast
7:55 PM 48.4 °F - 40.5 °F 74% 29.72 in 10.0 mi SW 13.8 mph 20.7 mph N/A   Overcast
8:15 PM 48.2 °F - 40.1 °F 74% 29.73 in 10.0 mi WSW 15.0 mph - N/A   Overcast
8:35 PM 47.5 °F - 39.9 °F 75% 29.73 in 10.0 mi WSW 16.1 mph - N/A   Overcast
8:55 PM 46.9 °F - 39.6 °F 76% 29.75 in 10.0 mi SW 10.4 mph - N/A   Overcast
9:15 PM 46.2 °F 41.2 °F 39.4 °F 77% 29.76 in 10.0 mi WSW 10.4 mph - N/A   Overcast
9:35 PM 46.6 °F - 39.6 °F 77% 29.77 in 10.0 mi West 15.0 mph - N/A   Overcast
9:55 PM 46.0 °F 40.6 °F 37.9 °F 73% 29.78 in 10.0 mi WSW 11.5 mph - N/A   Overcast
10:15 PM 44.4 °F 37.9 °F 36.5 °F 74% 29.79 in 10.0 mi WSW 13.8 mph - N/A   Mostly Cloudy
10:35 PM 44.1 °F 38.6 °F 35.4 °F 72% 29.80 in 10.0 mi WSW 10.4 mph - N/A   Overcast
10:55 PM 43.9 °F 37.9 °F 35.6 °F 73% 29.81 in 10.0 mi SW 11.5 mph - N/A   Overcast
11:15 PM 43.7 °F 38.1 °F 35.4 °F 73% 29.81 in 10.0 mi WSW 10.4 mph - N/A   Overcast
11:35 PM 43.5 °F 37.5 °F 35.6 °F 74% 29.81 in 10.0 mi WSW 11.5 mph 17.3 mph N/A   Overcast
11:55 PM 43.3 °F 36.1 °F 35.1 °F 73% 29.81 in 10.0 mi West 15.0 mph - N/A   Overcast